Location: NJAA Observatory
(40.6819°N, 74.8979°W)
Time: 16:42:05
(UTC-04:00)

Daily predictions for brighter satellites

Satellite Brightness Start Highest point End
(mag) Time Altitude Azimuth Time Altitude Azimuth Time Altitude Azimuth
Cosmos 1605 Rocket 4.1 20:54:55 10° N 21:01:13 89° W 21:07:34 10° S
Cosmos 1741 Rocket 4.1 21:00:46 10° S 21:05:58 58° ESE 21:11:11 10° NNE
Cosmos 1818 3.7 21:03:14 10° NNW 21:08:41 66° NE 21:14:04 10° SE
YAOGAN 6 2.9 21:05:31 10° SSE 21:09:03 52° ENE 21:12:39 10° N
ATLAS 5 CENTAUR R/B 1.7 21:06:23 10° SSW 21:11:00 82° ESE 21:16:02 10° NE
Cosmos 1726 4.1 21:12:42 10° NE 21:14:53 15° ENE 21:17:04 10° ESE
RESURS DK-1 4.0 21:14:03 10° N 21:17:21 22° NE 21:20:38 10° ESE
Cosmos 1076 Rocket 3.9 21:14:54 10° SSE 21:19:03 45° E 21:23:13 10° NNE
Spot 1 4.0 21:16:07 10° SSE 21:20:12 86° WSW 21:24:28 10° NNW
Cosmos 1802 Rocket 4.5 21:15:08 10° N 21:20:58 43° ENE 21:26:46 10° SSE
Cosmos 1727 Rocket 4.3 21:15:01 10° S 21:21:19 78° W 21:27:43 10° N
Cosmos 1408 Rocket 4.4 21:18:43 10° SSE 21:22:28 30° E 21:26:16 10° NNE
Cosmos 2237 Rocket 3.7 21:22:34 10° NW 21:27:30 32° WSW 21:32:25 10° SSW
Cosmos 1939 Rocket 3.7 21:26:42 10° S 21:30:36 51° W 21:34:35 10° NNW
Cosmos 1340 Rocket 3.8 21:28:53 10° SSW 21:32:48 51° WNW 21:36:47 10° N
Cosmos 2221 2.6 21:29:01 10° N 21:33:27 87° WSW 21:37:49 10° S
CZ-4B DEB 3.2 21:31:36 10° S 21:34:30 54° W 21:37:26 10° NNW
Envisat 4.1 21:30:57 10° S 21:35:45 42° W 21:40:35 10° NNW
Cosmos 1603 4.3 21:30:32 10° N 21:35:55 43° ENE 21:40:30 14° SE
Meteor 1-29 3.6 21:35:16 10° N 21:38:39 58° WNW 21:42:03 10° SSW
Tiangong 1 1.5 21:36:13 10° W 21:38:58 52° N 21:41:43 10° ENE
Cosmos 1674 2.7 21:39:57 10° S 21:43:43 85° W 21:47:29 10° N
Cosmos 371 Rocket 4.4 21:39:33 10° N 21:43:50 31° ENE 21:47:08 15° ESE
Cosmos 2208 Rocket 4.1 21:39:04 10° NNW 21:44:25 82° WSW 21:49:33 11° SSE
MetOp-A 4.2 21:40:22 11° SSE 21:45:24 70° ENE 21:50:45 10° N
ARGOS 3.4 21:42:43 13° SSE 21:47:21 56° ENE 21:52:39 10° N
Cosmos 2016 Rocket 4.1 21:41:27 10° N 21:47:39 59° E 21:52:56 14° SSE
Okean 3 Rocket 4.2 21:43:13 10° SSW 21:47:40 60° W 21:52:06 10° N
CZ-3B R/B 3.8 21:46:47 10° SW 21:49:41 80° SE 21:59:29 10° NE
SPOT 5 3.2 21:47:02 16° SE 21:50:49 53° ENE 21:55:47 10° N
Cosmos 1943 4.4 21:46:01 10° N 21:50:56 30° ENE 21:54:57 14° ESE
Lacrosse 5 2.2 21:46:25 10° NW 21:51:26 57° NE 21:55:19 16° ESE
GPS 2-05 Rocket1 4.3 21:49:48 10° SSW 21:51:24 16° S 21:51:24 16° S
Cosmos 1908 3.5 21:48:47 10° NNW 21:52:39 67° W 21:56:19 11° S
SL-16 R/B 3.0 21:47:14 10° NW 21:52:40 49° WSW 21:58:04 10° S
SPOT 1/Viking Rocket 4.0 21:54:30 18° SE 21:58:06 46° ENE 22:03:01 10° N
Cosmos 1766 Rocket 3.5 21:55:24 10° S 21:59:43 87° E 22:04:05 10° N
Atlas Centaur 2 3.3 21:59:44 10° SSW 22:00:06 10° SSW 22:00:27 10° S
KORONAS-FOTON 3.8 21:57:08 10° S 22:00:56 80° W 22:04:44 10° N
Abrixas rocket 3.4 22:00:41 10° NW 22:03:45 37° NNE 22:06:04 15° E
Cosmos 1242 Rocket 3.4 22:00:27 10° NNW 22:04:03 49° W 22:07:16 12° S
Cosmos 1328 Rocket 3.9 22:01:18 10° N 22:05:32 48° E 22:07:52 24° SE
USA 245 3.1 22:07:27 25° SSE 22:09:22 82° ENE 22:13:34 10° N
Cosmos 1515 Rocket 4.1 22:07:20 10° N 22:11:26 40° ENE 22:13:24 25° SE
YAOGAN 11 4.1 22:08:20 20° SSE 22:11:27 87° ENE 22:16:01 10° NNW
Cosmos 1151 Rocket 4.0 22:08:00 10° NNE 22:11:57 32° ENE 22:13:43 23° ESE
H-2A R/B 3.6 22:13:53 17° E 22:15:39 22° ENE 22:18:56 10° NNE
Cosmos 1743 Rocket 3.6 22:13:15 22° SSE 22:15:49 57° E 22:20:04 10° NNE
USA 234 3.2 22:09:48 10° NE 22:16:21 71° SE 22:22:52 10° SW
Cosmos 2228 Rocket 3.2 22:15:06 10° N 22:19:41 66° E 22:22:04 27° SSE
Cosmos 468 Rocket 4.0 22:17:45 10° NNW 22:22:53 75° WSW 22:26:04 23° S
Cosmos 1703 4.4 22:22:24 26° ESE 22:23:03 27° E 22:26:26 10° NNE
SL-08 RB Rocket 3.7 22:21:53 23° S 22:24:44 79° WSW 22:29:22 10° NNW
Terra 2.5 22:24:00 25° ESE 22:26:07 39° ENE 22:30:33 10° N
ERS-1 Rocket 4.2 22:21:48 10° SSW 22:26:27 37° W 22:31:08 10° NNW
Meteor 1-11 4.5 22:23:46 23° SSE 22:27:20 55° E 22:33:00 10° NNE
Nimbus 7 Rocket 4.4 22:25:59 10° NNE 22:32:03 87° ESE 22:37:30 13° SSW
H-2A ROCKET BODY 3.7 22:28:28 10° SSW 22:32:31 27° SE 22:44:14 10° E
Cosmos 332 Rocket 4.0 22:29:34 10° NNW 22:34:27 70° WSW 22:37:02 28° S
Cosmos 2123 Rocket 4.2 22:36:04 11° SSW 22:41:57 70° W 22:48:09 10° N
H-2A R/B 2.3 22:39:05 25° S 22:42:12 73° WSW 22:47:39 10° NNW
Meteor 1-27 4.3 22:37:13 10° N 22:43:01 69° ENE 22:45:45 32° SSE
Meteor 2-10 4.3 22:37:32 10° NNW 22:43:09 74° W 22:46:31 25° S
Cosmos 220 Rocket 4.5 22:39:19 10° SSW 22:43:39 61° WNW 22:48:01 10° NNE
Cosmos 1626 2.3 22:44:38 48° ESE 22:45:03 51° E 22:48:41 10° NNE
Cosmos 2058 2.9 22:44:53 42° SSE 22:46:10 67° E 22:50:21 10° NNE
Cosmos 1726 3.7 22:47:01 10° NNW 22:50:17 30° W 22:52:04 20° SW
CZ-4B R/B 4.3 22:45:44 10° NNE 22:50:32 35° E 22:51:29 32° ESE
Cosmos 2263 Rocket 2.0 22:46:57 21° SSW 22:50:43 76° ESE 22:56:19 10° NNE
Cosmos 540 Rocket 4.2 22:46:56 10° N 22:51:47 39° ENE 22:53:35 30° ESE
Cosmos 1300 3.8 22:50:27 10° NNW 22:54:01 38° W 22:55:37 25° SW
RESURS DK-1 3.6 22:51:44 10° NW 22:55:28 32° WSW 22:56:54 25° SW
Cosmos 2285 Rocket 4.3 22:52:40 10° NNW 22:58:57 58° ENE 23:01:42 33° SE
Sich 1 4.4 22:59:55 24° E 22:59:55 24° E 23:03:11 10° NE
ERBS 2.8 23:03:27 10° NW 23:06:28 49° WSW 23:06:28 49° WSW
PSLV R/B 4.1 23:09:21 39° NNE 23:09:21 39° NNE 23:11:26 10° N
deb Chang Zheng 4 3.5 23:04:21 10° NNE 23:08:43 70° ESE 23:09:31 55° SSE
Cosmos 1356 4.4 23:11:37 35° WSW 23:12:29 43° WNW 23:15:51 10° N
Cosmos 2151 3.7 23:10:59 29° SW 23:12:50 51° W 23:17:03 10° N
Cosmos 1707 Rocket 4.2 23:09:10 10° N 23:13:25 40° ENE 23:13:54 39° E
Tiangong 1 2.6 23:11:54 10° WNW 23:13:23 28° WNW 23:13:23 28° WNW
Cosmos 1354 Rocket 4.0 23:16:07 34° SSW 23:18:26 84° WNW 23:23:42 10° NNE
Cosmos 1844 Rocket 3.6 23:24:43 29° E 23:24:43 29° E 23:29:19 10° NE
Cosmos 1455 2.1 23:23:38 10° N 23:27:30 76° W 23:27:33 76° WSW
CZ-4C R/B 2.5 23:28:14 43° ESE 23:28:14 43° ESE 23:33:37 10° NE
Cosmos 1666 Rocket 3.8 23:28:28 53° E 23:28:32 53° E 23:32:53 10° NNE
CARTOSAT-1 4.4 23:29:27 36° SW 23:30:20 40° W 23:34:25 10° NNW
Cosmos 1464 Rocket 3.9 23:24:40 10° N 23:30:51 73° E 23:32:45 46° SSE
Cosmos 841 Rocket 4.3 23:27:31 10° NW 23:32:24 40° WSW 23:33:53 33° SW
Lacrosse 5 3.3 23:30:02 10° WNW 23:34:03 24° WSW 23:34:30 24° SW
Cosmos 1943 4.0 23:29:49 10° NW 23:35:04 40° WSW 23:36:46 32° SW
Cosmos 1869 3.4 23:34:15 10° N 23:37:55 65° NE 23:37:55 65° NE
Cosmos 1805 Rocket 3.5 23:39:13 67° SW 23:39:40 74° W 23:44:00 10° N
Abrixas rocket 4.4 23:37:27 10° WNW 23:38:41 20° W 23:38:41 20° W
Cosmos 1633 Rocket 3.1 23:44:55 65° E 23:44:55 65° E 23:49:05 10° NNE
CZ-4C R/B 3.4 23:46:43 81° SW 23:46:50 82° WSW 23:51:14 10° NNW
Cosmos 967 Rocket 4.4 23:41:51 10° NNW 23:48:15 82° ENE 23:50:08 49° SE
Cosmos 783 Rocket 4.4 23:43:23 10° NNW 23:48:43 79° ENE 23:49:34 62° SE
Cosmos 1400 Rocket 4.0 23:49:33 34° ENE 23:49:33 34° ENE 23:52:36 10° NNE
H-2A R/B 3.2 23:51:01 31° WSW 23:51:28 32° W 23:55:17 10° NW
SME Rocket 3.0 23:52:50 71° W 23:52:50 71° W 23:57:16 10° NNW
